Notices

What's New in latest Release from April 7th, 2021:

- Updated Glossary, including Speed of Maximum Gust, and Total Hourly Precipitation

- Updated national and regional climate services offices contacts and prices information

- Addition of station inventory lists for 1981-2010, 1971-2000, and 1961-1990 Normals.

If you haven't already, please take our survey and provide feedback about our website: https://eccc.sondage-survey.ca/f/LanguageSelection.aspx?s=442ca660-fcf1-47c0-95a9-59707d6fd709

Hourly Data Report for March 21, 2006

TORONTO CITY
ONTARIO

43°40'00.000" N
79°24'00.000" W
112.50 m
6158355
71508
XTO

Download Data

Hourly Data (March 2006)
Hourly Data Report for March 21, 2006
TIME
LST
Temp Definition
°C
Dew Point Definition
°C
Rel Hum Definition
%
Precip. Amount Definition
mm

Wind Dir Definition
10's deg

Wind Spd Definition
km/h
Visibility Definition
km
Stn Press Definition
kPa
Hmdx Definition


Wind Chill Definition


Weather Definition


00:00 -4.9 -10.9 63   LegendMM LegendMM   100.75     LegendNANA
01:00 -4.9 -13.0 53   LegendMM LegendMM   100.66     LegendNANA
02:00 -4.9 -13.2 52   LegendMM LegendMM   100.66     LegendNANA
03:00 -5.2 -12.8 55   LegendMM LegendMM   100.70     LegendNANA
04:00 -5.6 -12.7 57   LegendMM LegendMM   100.70     LegendNANA
05:00 -5.7 -12.6 58   LegendMM LegendMM   100.61     LegendNANA
06:00 -6.0 -12.5 60   LegendMM LegendMM   100.54     LegendNANA
07:00 -6.1 -12.2 62   LegendMM LegendMM   100.50     LegendNANA
08:00 -5.4 -12.2 59   LegendMM LegendMM   100.40     LegendNANA
09:00 -4.3 -11.7 56   LegendMM LegendMM   100.27     LegendNANA
10:00 -3.5 -11.8 53   LegendMM LegendMM   100.19     LegendNANA
11:00 -1.6 -10.3 51   LegendMM LegendMM   100.15     LegendNANA
12:00 -0.2 -10.3 46   LegendMM LegendMM   100.04     LegendNANA
13:00 0.4 -10.9 42   LegendMM LegendMM   99.97     LegendNANA
14:00 1.2 -9.7 44   LegendMM LegendMM   99.87     LegendNANA
15:00 0.8 -10.3 43   LegendMM LegendMM   99.81     LegendNANA
16:00 1.4 -7.5 52   LegendMM LegendMM   99.73     LegendNANA
17:00 0.0 -7.3 58   LegendMM LegendMM   99.74     LegendNANA
18:00 -1.7 -7.1 67   LegendMM LegendMM   99.80     LegendNANA
19:00 -2.1 -7.2 68   LegendMM LegendMM   99.84     LegendNANA
20:00 -2.1 -7.2 68   LegendMM LegendMM   99.85     LegendNANA
21:00 -1.5 -7.2 65   LegendMM LegendMM   99.83     LegendNANA
22:00 -1.2 -7.3 63   LegendMM LegendMM   99.82     LegendNANA
23:00 -1.1 -7.0 64   LegendMM LegendMM   99.80     LegendNANA

Notes on Data Quality.

Legend

  • E = Estimated
  • M = Missing
  • NA = Not Available*
  • [empty] = Indicates an unobserved value
Date modified: